Change the Weather History Date:

Tuesday, October 2, 2012

  Actual Average Record
Temperature  
Mean Temperature 53 °F -  
Max Temperature 66 °F 63 °F 87 °F (1976)
Min Temperature 40 °F 39 °F 21 °F (1975)
Degree Days  
Heating Degree Days 12    
Growing Degree Days 3 (Base 50)    
Moisture  
Dew Point 40 °F    
Average Humidity 68    
Maximum Humidity 99    
Minimum Humidity 30    
Precipitation  
Precipitation 0.00 in - - ()
Sea Level Pressure  
Sea Level Pressure 29.93 in    
Wind  
Wind Speed 4 mph (NE)    
Max Wind Speed 9 mph    
Max Gust Speed -    
Visibility 10 miles    
Events      
Averages and records for this station are not official NWS values.
T = Trace of Precipitation, MM = Missing Value Source: NWS Daily Summary

Daily Weather History Graph

Daily Weather History Graph

Search for Another Location

Airport or City:

Trip Planner

Search our weather history database for the weather conditions in past years. The results will help you decide how hot, cold, wet, or windy it might be!

Date:

Astronomy

Oct. 02, 2012 Rise Set
Actual Time 6:56 AM CDT 6:34 PM CDT
Civil Twilight 6:27 AM CDT 7:03 PM CDT
Nautical Twilight 5:52 AM CDT 7:37 PM CDT
Astronomical Twilight 5:18 AM CDT 8:11 PM CDT
Moon 7:37 PM CDT (10/2) 9:32 AM CDT (10/2)
Length of Visible Light 12h 36m
Length of Day
11h 37m
Waning Gibbous, 94% of the Moon is Illuminated
Oct 2
Waning Gibbous
Oct 8
Last Quarter
Oct 15
New
Oct 21
First Quarter
Oct 29
Full

Hourly Weather History & Observations

Time (CDT) Temp. Windchill Dew Point Humidity Pressure Visibility Wind Dir Wind Speed Gust Speed Precip Events Conditions
12:15 AM 50.2 °F - 48.2 °F 93% 29.90 in 10.0 mi North 8.1 mph - N/A   Clear
12:35 AM 50.0 °F - 47.7 °F 92% 29.89 in 10.0 mi NNE 4.6 mph - N/A   Clear
1:35 AM 50.9 °F - 48.4 °F 91% 29.91 in 10.0 mi NNE 3.5 mph - N/A   Overcast
1:55 AM 49.1 °F - 47.5 °F 94% 29.91 in 10.0 mi NNE 4.6 mph - N/A   Scattered Clouds
2:15 AM 46.4 °F - 45.0 °F 95% 29.90 in 10.0 mi Calm Calm - N/A   Clear
2:35 AM 45.9 °F - 45.3 °F 98% 29.90 in 7.0 mi Calm Calm - N/A   Clear
2:55 AM 44.8 °F - 44.4 °F 99% 29.90 in 5.0 mi Calm Calm - N/A   Clear
3:15 AM 46.4 °F 44.3 °F 46.2 °F 99% 29.90 in 7.0 mi North 4.6 mph - N/A   Clear
3:35 AM 44.4 °F 41.2 °F 44.1 °F 99% 29.92 in 7.0 mi North 5.8 mph - N/A   Clear
3:55 AM 45.1 °F 42.0 °F 44.6 °F 98% 29.92 in 7.0 mi North 5.8 mph - N/A   Clear
4:15 AM 44.1 °F 42.5 °F 43.7 °F 99% 29.92 in 7.0 mi NNE 3.5 mph - N/A   Clear
4:35 AM 43.5 °F - 42.8 °F 97% 29.92 in 7.0 mi Calm Calm - N/A   Clear
4:55 AM 44.1 °F 41.5 °F 43.5 °F 98% 29.92 in 10.0 mi NNE 4.6 mph - N/A   Clear
5:15 AM 44.6 °F 42.2 °F 43.0 °F 94% 29.92 in 10.0 mi North 4.6 mph - N/A   Clear
5:35 AM 43.0 °F 38.8 °F 42.3 °F 97% 29.93 in 10.0 mi North 6.9 mph - N/A   Clear
5:55 AM 43.2 °F 39.7 °F 42.4 °F 97% 29.93 in 10.0 mi NNE 5.8 mph - N/A   Clear
6:15 AM 44.1 °F 40.8 °F 42.4 °F 94% 29.94 in 10.0 mi NNE 5.8 mph - N/A   Clear
6:35 AM 43.7 °F 40.3 °F 41.2 °F 91% 29.94 in 10.0 mi NNE 5.8 mph - N/A   Clear
6:55 AM 42.1 °F - 39.7 °F 91% 29.95 in 10.0 mi Calm Calm - N/A   Clear
7:15 AM 41.9 °F 40.0 °F 40.5 °F 95% 29.96 in 10.0 mi North 3.5 mph - N/A   Clear
7:35 AM 40.8 °F 38.8 °F 39.2 °F 94% 29.96 in 10.0 mi NNE 3.5 mph - N/A   Clear
7:55 AM 44.1 °F - 41.9 °F 92% 29.96 in 10.0 mi Calm Calm - N/A   Clear
8:15 AM 45.3 °F - 42.3 °F 89% 29.96 in 10.0 mi Calm Calm - N/A   Clear
8:35 AM 47.1 °F - 42.4 °F 84% 29.97 in 10.0 mi NE 3.5 mph - N/A   Clear
8:55 AM 49.1 °F - 41.5 °F 75% 29.97 in 10.0 mi NE 8.1 mph - N/A   Clear
9:15 AM 50.2 °F - 40.6 °F 70% 29.97 in 10.0 mi NE 8.1 mph - N/A   Clear
9:35 AM 51.8 °F - 40.3 °F 65% 29.97 in 10.0 mi NNE 9.2 mph - N/A   Clear
9:55 AM 53.1 °F - 39.9 °F 61% 29.98 in 10.0 mi NNE 6.9 mph - N/A   Clear
10:15 AM 54.5 °F - 38.8 °F 56% 29.97 in 10.0 mi NNE 5.8 mph - N/A   Clear
10:35 AM 55.6 °F - 38.7 °F 53% 29.97 in 10.0 mi ENE 4.6 mph - N/A   Clear
10:55 AM 56.8 °F - 36.5 °F 47% 29.96 in 10.0 mi NE 6.9 mph - N/A   Clear
11:15 AM 57.4 °F - 36.1 °F 45% 29.96 in 10.0 mi NE 4.6 mph - N/A   Clear
11:35 AM 58.3 °F - 36.5 °F 44% 29.96 in 10.0 mi NNW 3.5 mph - N/A   Clear
11:55 AM 59.7 °F - 36.0 °F 41% 29.96 in 10.0 mi Calm Calm - N/A   Clear
12:15 PM 61.0 °F - 36.5 °F 40% 29.95 in 10.0 mi Calm Calm - N/A   Clear
12:35 PM 61.7 °F - 36.0 °F 38% 29.95 in 7.0 mi Calm Calm - N/A   Clear
12:55 PM 62.8 °F - 36.1 °F 37% 29.94 in 10.0 mi Calm Calm - N/A   Clear
1:15 PM 62.2 °F - 35.4 °F 37% 29.94 in 10.0 mi Calm Calm - N/A   Clear
1:35 PM 62.8 °F - 35.2 °F 36% 29.93 in 10.0 mi NNW 4.6 mph - N/A   Clear
1:55 PM 64.8 °F - 35.2 °F 33% 29.92 in 10.0 mi Calm Calm - N/A   Clear
2:15 PM 65.3 °F - 35.2 °F 33% 29.92 in 10.0 mi West 4.6 mph - N/A   Clear
2:35 PM 65.1 °F - 35.1 °F 33% 29.91 in 10.0 mi WSW 4.6 mph - N/A   Clear
2:55 PM 65.8 °F - 35.2 °F 32% 29.91 in 10.0 mi Calm Calm - N/A   Clear
3:15 PM 66.4 °F - 35.1 °F 31% 29.91 in 10.0 mi Calm Calm - N/A   Clear
3:35 PM 65.7 °F - 34.7 °F 32% 29.90 in 10.0 mi Calm Calm - N/A   Clear
3:55 PM 66.6 °F - 35.1 °F 31% 29.91 in 10.0 mi West 3.5 mph - N/A   Clear
4:15 PM 66.6 °F - 35.4 °F 32% 29.90 in 10.0 mi SSW 4.6 mph - N/A   Clear
4:35 PM 66.2 °F - 33.4 °F 30% 29.90 in 10.0 mi Calm Calm - N/A   Clear
4:55 PM 66.2 °F - 34.0 °F 30% 29.90 in 10.0 mi SW 3.5 mph - N/A   Clear
5:15 PM 65.7 °F - 34.3 °F 31% 29.91 in 10.0 mi South 4.6 mph - N/A   Clear
5:35 PM 65.1 °F - 33.4 °F 31% 29.91 in 10.0 mi SSW 3.5 mph - N/A   Clear
5:55 PM 63.1 °F - 37.8 °F 39% 29.91 in 10.0 mi Calm Calm - N/A   Clear
6:15 PM 62.8 °F - 34.9 °F 35% 29.91 in 10.0 mi Calm Calm - N/A   Clear
6:35 PM 61.7 °F - 35.6 °F 38% 29.91 in 10.0 mi SSE 3.5 mph - N/A   Clear
6:55 PM 55.4 °F - 37.0 °F 50% 29.92 in 10.0 mi Calm Calm - N/A   Clear
7:15 PM 51.3 °F - 36.5 °F 57% 29.93 in 10.0 mi SE 5.8 mph - N/A   Clear
7:35 PM 51.4 °F - 36.5 °F 57% 29.93 in 7.0 mi SE 5.8 mph - N/A   Clear
7:55 PM 48.2 °F - 37.0 °F 65% 29.93 in 10.0 mi SE 5.8 mph - N/A   Clear
8:15 PM 45.5 °F 44.2 °F 37.6 °F 74% 29.93 in 10.0 mi SSE 3.5 mph - N/A   Clear
8:35 PM 48.0 °F - 39.6 °F 73% 29.93 in 10.0 mi SE 3.5 mph - N/A   Clear
8:55 PM 48.6 °F - 41.0 °F 75% 29.94 in 10.0 mi SE 8.1 mph - N/A   Clear
9:15 PM 49.8 °F - 43.2 °F 78% 29.95 in 10.0 mi SE 9.2 mph - N/A   Clear
9:35 PM 49.6 °F - 45.0 °F 84% 29.95 in 10.0 mi SE 6.9 mph - N/A   Clear
9:55 PM 48.2 °F - 44.4 °F 87% 29.95 in 10.0 mi SSE 4.6 mph - N/A   Clear
10:15 PM 48.4 °F - 45.3 °F 89% 29.96 in 10.0 mi SSE 4.6 mph - N/A   Clear
10:35 PM 47.3 °F - 44.8 °F 91% 29.96 in 10.0 mi SE 4.6 mph - N/A   Clear
10:55 PM 46.4 °F 45.2 °F 44.2 °F 92% 29.96 in 10.0 mi SE 3.5 mph - N/A   Clear
11:15 PM 46.6 °F - 45.7 °F 97% 29.96 in 10.0 mi Calm Calm - N/A   Clear
11:35 PM 45.7 °F 44.4 °F 45.0 °F 97% 29.96 in 10.0 mi ESE 3.5 mph - N/A   Clear
11:55 PM 43.0 °F 41.3 °F 42.1 °F 97% 29.96 in 7.0 mi SE 3.5 mph - N/A   Clear